This is the latest recevied weather packets stored in our database for station/object AE6BH. If no packets are shown the sender has not sent any weather packets the latest 10 day(s).
| Time | Temp. | Humidity | Pressure | Rain* | Wind** | Luminosity | Snow |
|---|---|---|---|---|---|---|---|
| 1778075431 | 9.44° C | 93% | 1018.6 hPa | 0 mm | - | 25 W/m² | - |
| 1778075128 | 8.89° C | 93% | 1018.6 hPa | 0 mm | - | 24 W/m² | - |
| 1778074824 | 8.33° C | 93% | 1018.5 hPa | 0 mm | - | 21 W/m² | - |
| 1778074521 | 7.78° C | 93% | 1018.6 hPa | 0 mm | - | 18 W/m² | - |
| 1778074218 | 7.78° C | 93% | 1018.6 hPa | 0 mm | - | 16 W/m² | - |
| 1778073915 | 7.78° C | 93% | 1018.6 hPa | 0 mm | - | 14 W/m² | - |
| 1778073612 | 7.22° C | 93% | 1018.4 hPa | 0 mm | - | 11 W/m² | - |
| 1778073310 | 7.22° C | 93% | 1018.4 hPa | 0 mm | - | 9 W/m² | - |
| 1778073006 | 7.22° C | 93% | 1018.5 hPa | 0 mm | - | 6 W/m² | - |
| 1778072703 | 7.22° C | 93% | 1018.2 hPa | 0 mm | - | 4 W/m² | - |
| 1778072400 | 7.22° C | 92% | 1018.3 hPa | 0 mm | - | 3 W/m² | - |
| 1778072098 | 7.22° C | 92% | 1017.9 hPa | 0 mm | - | 0 W/m² | - |
| 1778071796 | 7.22° C | 92% | 1017.9 hPa | 0 mm | - | 0 W/m² | - |
| 1778071494 | 7.22° C | 92% | 1018.1 hPa | 0 mm | - | 0 W/m² | - |
| 1778071192 | 7.78° C | 92% | 1017.9 hPa | 0 mm | - | 0 W/m² | - |
| 1778070889 | 7.78° C | 92% | 1018 hPa | 0 mm | - | 0 W/m² | - |
| 1778070586 | 7.78° C | 92% | 1017.9 hPa | 0 mm | - | 0 W/m² | - |
| 1778070283 | 7.78° C | 92% | 1017.9 hPa | 0 mm | - | 0 W/m² | - |
| 1778069981 | 7.78° C | 92% | 1018 hPa | 0 mm | - | 0 W/m² | - |
| 1778069678 | 7.78° C | 92% | 1018 hPa | 0 mm | - | 0 W/m² | - |
| 1778069375 | 7.78° C | 92% | 1018 hPa | 0 mm | - | 0 W/m² | - |
| 1778069073 | 7.78° C | 92% | 1017.9 hPa | 0 mm | - | 0 W/m² | - |
| 1778068770 | 7.78° C | 92% | 1017.9 hPa | 0 mm | - | 0 W/m² | - |
| 1778068468 | 7.78° C | 91% | 1017.9 hPa | 0 mm | - | 0 W/m² | - |
| 1778068166 | 8.33° C | 92% | 1017.9 hPa | 0 mm | - | 0 W/m² | - |
* Rain latest hour (hover to see other rain measurements)
** Current wind speed in m/s (hover to see current wind gust speed)